Probability
0 0 0 0 0 0 0 0 0 0 0 0 0 0 0 0 0 0 0 0 0 0 0 0 0 0 0 0 0 0 0 0 0 0 0 0 0 0 0 0 0 0 0
0 0 0 0 0 0 0 0 0 0 0 0 0 0 0 0 0 0 0 0 0 0 0 0 0 0 0 0 0 0 0 0 0 0 0 0 0 0 0 0 0 0 0
0 0 0 0 0 0 0 0 0 0 0 0 0 0 0 0 0 0 0 0 0 0 0 0 0 0 0 0 0 0 0 0 0 0 0 0 0 0 0 0 0 0 0
0 0 0 0 0 0 0 0 0 0 0 0 0 0 0 0 0 0 0 0 0 0 0 0 0 0 0 0 0 0 0 0 0 0 0 0 0 0 0 0 0 0 0
0 0 0 0 0 0 0 0 0 0 0 0 0 0 0 0 0 0 0 0 0 0 0 0 0 0 0 0 0 0 0 0 0 0 0 0 0 0 0 0 0 0 0
0 0 0 0 0 0 0 0 0 0 0 0 0 0 0 0 0 0 0 0 0 0 0 0 0 0 0 0 0 0 0 0 0 0 0 0 0 0 0 0 0 0 0
0 0 0 0 0 0 0 0 0 0 0 0 0 0 0 0 0 0 0 0 0 0 0 0 0 0 0 0 0 0 0 0 0 0 0 0 0 0 0 0 0 0 0
0 0 0 0 0 0 0 0 0 0 0 0 0 0 0 0 0 0 0 0 0 0 0 0 0 0 0 0 0 0 0 0 0 0 0 0 0 0 0 0 0 0 0
0 0 0 0 0 0 0 0 0 0 0 0 0 0 0 0 0 0 0 0 0 0 0 0 0 0 0 0 0 0 0 0 0 0 0 0 0 0 0 0 0 0 0
0 0 0 0 0 0 0 0 0 0 0 0 0 0 0 0 0 0 0 0 0 0 0 0 0 0 0 0 0 0 0 0 0 0 0 0 0 0 0 0 0 0 0
0 0 0 0 0 0 0 0 0 0 0 0 0 0 0 0 0 0 0 0 0 0 0 0 0 0 0 0 0 0 0 0 0 0 0 0 0 0 0 0 0 0 0
0 0 0 0 0 0 0 0 0 0 0 0 0 0 0 0 0 0 0 0 0 0 0 0 0 0 0 0 0 0 0 0 0 0 0 0 0 0 0 0 0 0 0
0 0 0 0 0 0 0 0 0 0 0 0 0 0 0 0 0 0 0 0 0 0 0 0 0 0 0 0 0 0 0 0 0 0 0 0 0 0 0 0 0 0 0
0 0 0 0 0 0 0 0 0 0 0 0 0 0 0 0 0 0 0 0 0 0 0 0 0 0 0 0 0 0 0 0 0 0 0 0 0 0 0 0 0 0 1
0 0 0 0 0 0 0 0 0 0 0 0 0 0 0 0 0 0 0 0 0 0 0 0 0 0 0 0 0 0 0 0 0 0 0 0 0 0 0 0 0 1 2
0 0 0 0 0 0 0 0 0 0 0 0 0 0 0 0 0 0 0 0 0 0 0 0 0 0 0 0 0 0 0 0 0 0 0 0 0 0 0 0 0 1 2
0 0 0 0 0 0 0 0 0 0 0 0 0 0 0 0 0 0 0 0 0 0 0 0 0 0 0 0 0 0 0 0 0 0 0 0 0 0 0 0 0 0 1
0 0 0 0 0 0 0 0 0 0 0 0 0 0 0 0 0 0 0 0 0 0 0 0 0 0 0 0 0 0 0 0 0 0 0 0 0 0 0 0 0 0 0
0 0 0 0 0 0 0 0 0 0 0 0 0 0 0 0 0 0 0 0 0 0 0 0 0 0 0 0 0 0 0 0 0 0 0 0 0 0 0 0 0 0 0
0 0 0 0 0 0 0 0 0 0 0 0 0 0 0 0 0 0 0 0 0 0 0 0 0 0 0 0 0 0 0 0 0 0 0 0 0 0 0 0 0 0 0
0 0 0 0 0 0 0 0 0 0 0 0 0 0 0 0 0 0 0 0 0 0 0 0 0 0 0 0 0 0 0 0 0 0 0 0 0 0 0 0 0 0 0
0 0 0 0 0 0 0 0 0 0 0 0 0 0 0 0 0 0 0 0 0 0 0 0 0 0 0 0 0 0 0 0 0 0 0 0 0 0 0 0 0 0 0
0 0 0 0 0 0 0 0 0 0 0 0 0 0 0 0 0 0 0 0 0 0 0 0 0 0 0 0 0 0 0 0 0 0 0 0 0 0 0 0 0 0 0
0 0 0 0 0 0 0 0 0 0 0 0 0 0 0 0 0 0 0 0 0 0 0 0 0 0 0 0 0 0 0 0 0 0 0 0 0 0 0 0 0 0 0
0 0 0 0 0 0 0 0 0 0 0 0 0 0 0 0 0 0 0 0 0 0 0 0 0 0 0 0 0 0 0 0 0 0 0 0 0 0 0 0 0 0 0
0 0 0 0 0 0 0 0 0 0 0 0 0 0 0 0 0 0 0 0 0 0 0 0 0 0 0 0 0 0 0 0 0 0 0 0 0 0 0 0 0 0 0
Wind_Speed
2 3 3 7 8 9 10 11 12 13 14 14 15 16 17 18 18 19 20 21 21 22 22 23 24 24 25 25 26 26 26 27 27 27 27 27 27 27 27 26 25 15 25
4 0 6 8 8 9 10 10 11 12 13 14 14 15 16 17 18 18 19 20 21 21 22 23 23 24 24 25 25 25 26 26 27 26 26 23 26 26 27 26 26 18 25
4 3 4 8 9 9 9 9 10 11 12 13 13 14 15 16 17 18 18 19 20 21 21 22 23 23 24 24 24 25 25 26 26 26 23 14 16 24 26 26 26 26 25
5 4 1 8 9 9 9 9 10 10 11 12 13 14 15 15 16 17 17 18 19 19 20 21 22 22 23 23 24 24 25 25 26 24 14 13 13 22 26 26 26 26 26
5 3 2 10 9 8 8 8 9 10 11 11 12 13 14 14 15 16 16 17 18 19 19 20 21 21 22 23 23 24 24 24 25 19 12 12 11 21 25 25 25 25 25
5 3 2 10 9 8 8 8 8 9 10 11 12 13 13 14 14 15 15 16 17 18 18 19 20 21 21 22 23 23 24 24 19 11 11 11 11 21 25 25 25 25 25
5 2 1 9 9 8 8 7 8 8 9 10 11 12 12 13 14 14 15 15 16 17 17 18 19 20 21 22 22 23 23 23 15 11 10 10 14 24 25 25 25 25 25
6 4 4 7 8 7 7 7 7 8 9 10 11 12 12 13 13 14 14 15 15 16 17 18 19 19 20 21 21 22 22 21 15 12 10 10 19 24 25 25 25 25 25
6 6 4 5 5 6 6 7 7 8 9 9 10 11 12 12 13 13 13 14 15 15 16 17 18 19 20 20 21 21 21 22 11 8 11 10 20 25 25 25 25 25 25
4 5 5 4 4 4 3 6 7 8 8 8 9 10 11 11 12 12 12 13 14 15 16 17 17 18 19 19 19 19 19 16 7 7 6 11 23 24 25 25 25 25 25
5 4 5 5 4 4 3 5 6 7 7 8 7 10 9 4 4 6 10 13 13 14 15 16 16 16 16 16 17 17 14 5 6 6 6 17 23 24 24 25 25 25 26
8 6 5 5 5 4 4 4 3 3 4 4 4 4 3 3 3 5 10 12 13 13 14 14 15 13 10 5 9 12 4 6 5 5 8 21 22 23 24 24 25 25 25
9 7 7 6 6 5 4 4 2 2 3 3 4 4 3 3 2 3 3 4 5 7 5 7 7 4 4 4 4 4 4 4 3 4 8 19 21 23 24 24 25 25 26
8 9 8 7 6 6 5 4 4 3 3 3 4 5 3 2 2 1 1 1 2 2 2 2 2 3 4 4 5 5 5 4 4 4 7 19 21 22 23 25 25 26 26
11 11 10 9 8 7 5 4 4 4 4 4 4 4 4 3 2 1 1 0 1 1 1 2 2 3 4 4 5 5 6 6 6 5 6 16 20 21 23 24 25 26 27
14 13 10 10 9 8 6 5 5 4 4 4 4 5 5 4 3 2 1 1 1 1 1 2 3 3 3 4 5 6 6 6 6 6 6 9 17 20 22 24 25 26 27
13 13 12 12 10 9 8 7 5 5 5 4 4 5 5 5 4 3 2 2 2 2 2 2 3 3 4 4 5 6 6 6 6 7 7 6 7 15 21 23 25 26 27
12 13 13 12 11 10 8 7 5 5 5 5 4 5 6 6 5 4 3 3 3 2 2 3 3 3 3 4 5 5 5 5 7 7 7 6 6 7 13 22 24 26 27
15 15 14 12 13 12 9 6 6 5 5 5 5 5 5 6 6 4 4 3 3 2 2 3 2 2 3 5 5 5 5 6 6 8 7 8 7 7 7 15 23 25 26
14 14 15 13 12 10 6 4 3 4 4 4 5 6 7 6 6 5 4 4 4 3 3 3 4 3 4 4 6 7 6 7 6 6 7 7 7 9 9 10 10 14 23
14 15 16 15 13 10 6 5 5 5 5 5 6 7 8 7 7 6 4 4 4 4 4 4 3 4 3 2 3 5 5 6 6 5 5 6 8 9 8 9 8 7 10
18 18 17 17 16 15 10 6 4 4 4 4 5 7 8 8 7 7 6 5 5 4 5 4 3 2 3 2 2 4 5 5 3 6 5 6 7 6 8 11 9 10 9
19 21 19 19 18 16 12 6 3 2 2 3 5 6 8 8 8 7 7 6 6 5 5 5 5 5 4 3 3 3 3 5 7 5 5 6 6 6 7 8 10 10 11
21 18 18 18 18 16 15 12 11 10 9 10 6 6 7 8 8 8 7 7 7 6 6 6 6 5 5 4 3 4 5 5 5 8 6 4 7 8 8 10 10 10 11
16 15 17 16 17 17 17 17 15 12 9 5 5 7 8 7 8 9 8 7 7 6 7 7 6 6 5 5 4 4 5 6 7 7 11 10 8 6 6 8 8 9 10
12 14 15 17 18 17 18 18 18 16 12 9 9 9 8 6 7 9 9 8 8 7 7 8 7 7 7 7 6 6 5 5 5 7 9 12 12 10 8 7 8 8 8
Wind_Direction
212 265 118 96 83 72 64 57 52 48 44 41 39 38 37 35 33 32 30 29 28 27 26 25 25 25 24 23 22 21 22 22 21 18 15 9 3 2 4 4 2 355 358
165 224 109 104 91 80 70 63 56 51 47 44 41 39 38 36 34 32 30 29 28 27 26 25 24 24 23 22 21 20 21 22 20 17 14 8 359 358 1 1 359 355 356
129 80 81 110 100 89 78 70 62 56 51 47 43 41 39 37 35 33 30 29 27 27 26 24 24 23 22 21 19 19 19 22 18 16 12 4 352 353 357 358 357 355 354
126 91 70 121 108 97 85 75 67 61 55 50 46 43 40 38 36 33 30 29 27 26 25 24 24 23 21 19 18 17 18 21 18 15 9 359 351 348 354 355 354 352 351
116 93 159 126 116 103 91 81 72 65 60 54 50 46 42 40 37 33 30 30 28 26 25 24 23 22 20 18 17 16 17 20 19 12 2 355 348 344 351 352 351 349 347
116 78 178 131 122 111 100 89 79 70 64 59 55 49 43 41 39 33 31 30 28 26 24 23 22 21 19 17 15 16 16 18 21 5 357 352 341 342 349 349 348 346 343
128 79 104 132 126 118 108 97 87 77 70 63 59 53 46 42 40 34 31 31 28 26 24 22 21 20 18 16 14 15 15 16 19 0 352 348 335 346 347 346 345 343 340
133 93 59 129 126 120 113 104 93 84 77 69 64 58 49 44 40 35 31 31 29 27 24 23 21 20 18 15 13 13 14 17 11 356 347 342 337 345 344 344 342 339 338
133 115 89 73 83 105 113 111 100 91 83 75 70 64 54 46 41 36 29 31 29 27 25 23 22 20 18 14 11 12 12 10 8 349 348 333 337 341 341 340 339 336 334
140 132 124 111 102 85 71 113 107 99 91 82 78 73 64 54 43 35 28 29 29 28 25 24 22 20 19 12 8 9 9 6 350 341 338 325 338 338 338 337 335 333 330
168 163 150 141 134 129 118 101 95 97 97 86 75 83 81 65 52 29 26 32 30 29 25 24 22 20 19 10 4 6 6 348 337 334 328 330 336 336 335 334 332 329 326
187 186 176 164 157 150 132 108 101 97 99 105 103 99 98 82 63 56 34 35 32 31 25 23 21 19 14 357 352 358 343 331 329 327 328 331 334 334 332 330 328 326 323
185 183 180 177 167 157 144 142 132 126 126 129 134 134 123 101 70 60 45 32 24 29 21 13 10 358 342 331 324 319 318 320 312 311 316 328 331 330 329 328 326 324 321
181 191 183 178 172 170 160 155 155 154 155 160 161 154 142 130 110 88 65 35 24 12 1 354 340 329 322 313 306 304 308 304 298 297 304 326 328 328 326 325 323 322 320
191 192 186 181 180 174 167 172 165 171 173 172 169 167 160 150 149 140 122 55 354 342 335 321 314 309 307 301 298 306 299 295 292 292 305 319 325 325 323 322 320 319 317
197 193 186 186 185 176 176 178 174 176 174 172 177 179 172 164 165 167 178 210 256 265 271 278 282 285 287 285 288 293 288 285 285 289 292 308 317 321 321 319 318 316 314
196 190 188 190 185 183 184 184 178 178 173 178 184 185 182 177 177 179 189 216 235 247 270 278 281 275 285 292 291 289 283 280 286 290 292 287 297 312 315 316 315 313 311
190 190 192 191 187 189 187 184 177 178 179 185 184 186 190 188 184 183 195 219 227 234 250 266 258 278 282 286 285 283 284 283 285 286 284 285 286 293 304 309 311 311 310
194 192 192 192 188 190 187 182 180 178 186 188 185 189 195 194 189 187 201 217 220 226 240 264 264 254 274 285 284 277 273 277 279 285 284 284 282 287 286 301 307 309 307
196 195 195 194 190 182 173 166 174 191 199 194 194 197 196 196 194 191 203 216 212 220 236 244 262 259 256 271 290 289 276 272 268 266 272 282 285 288 289 289 293 299 302
195 197 197 195 190 177 169 174 181 203 201 201 204 201 198 197 196 195 205 208 209 215 228 236 249 270 268 264 288 293 277 260 256 259 260 272 282 285 286 290 287 284 290
200 201 200 200 193 191 190 176 174 172 187 197 198 200 200 198 198 202 201 207 210 216 230 232 224 249 261 266 274 309 316 306 277 273 260 271 280 282 289 295 289 287 283
205 204 203 202 198 196 186 161 144 134 145 180 201 205 204 200 202 205 203 205 210 208 221 227 220 222 246 253 212 230 282 295 311 280 267 276 277 283 285 288 287 286 286
211 204 205 201 200 195 186 187 185 191 199 201 193 195 197 200 203 206 207 207 211 211 219 228 224 215 222 248 239 222 223 239 283 302 295 274 274 281 280 289 292 288 285
208 203 204 202 202 196 195 198 199 207 207 182 180 190 200 205 208 209 209 208 213 215 219 224 229 224 218 231 233 230 239 243 235 261 291 299 293 276 272 275 282 284 284
202 201 200 202 206 200 199 202 204 208 200 188 194 199 203 206 210 213 213 211 214 216 220 224 227 229 230 233 238 232 231 238 243 248 272 290 295 294 283 275 278 279 281